Flight Track Log - Related Links

Times and Time Zones

All times are in EDT time to prevent confusion due to time zone crossing. See the KAP910 flight status page for this flight to view local times or setup timezone preferences in your user account.

Time Position Orientation Groundspeed Altitude Reporting Facility
EDT Latitude Longitude Course Direction KTS MPH feet Rate Location/Type
Wed 04:09:00 PM 41.3810 -70.1156 342° North  Level FlightAware Approximate
Wed 04:10:00 PM 41.3965 -70.1246 336° Northwest  Level FlightAware Approximate
Wed 04:11:00 PM 41.4169 -70.1368 336° Northwest  Level FlightAware Approximate
Wed 04:12:00 PM 41.4374 -70.1491 336° Northwest  Level FlightAware Approximate
Wed 04:13:00 PM 41.4578 -70.1613 336° Northwest  Level FlightAware Approximate
Wed 04:14:00 PM 41.4783 -70.1733 337° Northwest  Level FlightAware Approximate
Wed 04:15:00 PM 41.4990 -70.1851 337° Northwest  Level FlightAware Approximate
Wed 04:16:00 PM 41.5196 -70.1969 337° Northwest  Level FlightAware Approximate
Wed 04:17:00 PM 41.5401 -70.2086 337° Northwest  Level FlightAware Approximate
Wed 04:18:00 PM 41.5607 -70.2204 337° Northwest  Level FlightAware Approximate
Wed 04:19:00 PM 41.5813 -70.2322 337° Northwest  Level FlightAware Approximate
Wed 04:20:00 PM 41.6027 -70.2411 343° North  Level FlightAware Approximate
Wed 04:21:00 PM 41.6242 -70.2497 343° North  Level FlightAware Approximate
Wed 04:22:00 PM 41.6457 -70.2583 343° North  Level FlightAware Approximate
Wed 04:23:00 PM 41.6667 -70.2667 343° North  Level FlightAware Approximate
Wed 04:24:00 PM 41.6693 -70.2804 343° North  Level Estimated
Wed 04:25:00 PM 41.6693 -70.2804 343° North  Level Estimated
Wed 04:26:00 PM 41.6693 -70.2804 343° North  Level Estimated
Wed 04:27:00 PM 41.6693 -70.2804 343° North  Level Estimated
Wed 04:28:00 PM 41.6693 -70.2804 343° North  Level Estimated
Wed 04:29:00 PM 41.6693 -70.2804 343° North  Level Estimated

Login

Don't have an account? Register now (free) for customized features, flight alerts, and more!